Time,TemperatureF,DewpointF,PressureIn,WindDirection,WindDirectionDegrees,WindSpeedMPH,WindSpeedGustMPH,Humidity,HourlyPrecipIn,Conditions,Clouds,dailyrainin,SoftwareType,DateUTC
2013-10-08 00:00:00,55.5,32.2,29.85,NNW,338,0.0,0.0,41,0.00,,,0.00,WeatherCatV1.21B27,2013-10-08 07:00:00,
2013-10-08 00:05:00,55.5,32.2,29.85,NNW,338,0.0,0.0,41,0.00,,,0.00,WeatherCatV1.21B27,2013-10-08 07:05:00,
2013-10-08 00:10:00,55.5,32.2,29.85,NNW,338,0.0,0.0,41,0.00,,,0.00,WeatherCatV1.21B27,2013-10-08 07:10:00,
2013-10-08 00:15:00,55.5,32.2,29.85,NNW,338,0.0,0.0,41,0.00,,,0.00,WeatherCatV1.21B27,2013-10-08 07:15:00,
2013-10-08 00:20:00,55.5,32.2,29.85,NNW,338,0.0,0.0,41,0.00,,,0.00,WeatherCatV1.21B27,2013-10-08 07:20:00,
2013-10-08 00:25:00,53.9,33.0,29.85,NNW,338,0.0,1.0,45,0.00,,,0.00,WeatherCatV1.21B27,2013-10-08 07:25:00,
2013-10-08 00:30:00,53.9,33.0,29.85,NNW,338,0.0,1.0,45,0.00,,,0.00,WeatherCatV1.21B27,2013-10-08 07:30:00,
2013-10-08 00:35:00,53.9,33.0,29.85,NNW,338,0.0,1.0,45,0.00,,,0.00,WeatherCatV1.21B27,2013-10-08 07:35:00,
2013-10-08 00:40:00,53.9,33.0,29.85,NNW,338,0.0,1.0,45,0.00,,,0.00,WeatherCatV1.21B27,2013-10-08 07:40:00,
2013-10-08 00:45:00,53.9,33.0,29.85,NNW,338,0.0,1.0,45,0.00,,,0.00,WeatherCatV1.21B27,2013-10-08 07:45:00,
2013-10-08 00:50:00,53.9,33.0,29.85,NNW,338,0.0,1.0,45,0.00,,,0.00,WeatherCatV1.21B27,2013-10-08 07:50:00,
2013-10-08 00:55:00,53.9,33.0,29.85,NNW,338,0.0,1.0,45,0.00,,,0.00,WeatherCatV1.21B27,2013-10-08 07:55:00,
2013-10-08 01:00:00,53.9,33.0,29.85,NNW,338,0.0,1.0,45,0.00,,,0.00,WeatherCatV1.21B27,2013-10-08 08:00:00,
2013-10-08 01:05:00,53.9,33.0,29.85,NNW,338,0.0,1.0,45,0.00,,,0.00,WeatherCatV1.21B27,2013-10-08 08:05:00,
2013-10-08 01:10:00,53.9,33.0,29.85,NNW,338,0.0,1.0,45,0.00,,,0.00,WeatherCatV1.21B27,2013-10-08 08:10:00,
2013-10-08 01:15:00,53.9,33.0,29.85,NNW,338,0.0,1.0,45,0.00,,,0.00,WeatherCatV1.21B27,2013-10-08 08:15:00,
2013-10-08 01:20:00,53.9,33.0,29.85,NNW,338,0.0,1.0,45,0.00,,,0.00,WeatherCatV1.21B27,2013-10-08 08:20:00,
2013-10-08 01:25:00,51.6,33.1,29.84,NNW,338,0.0,1.0,49,0.00,,,0.00,WeatherCatV1.21B27,2013-10-08 08:25:00,
2013-10-08 01:30:00,51.6,33.1,29.84,NNW,338,0.0,1.0,49,0.00,,,0.00,WeatherCatV1.21B27,2013-10-08 08:30:00,
2013-10-08 01:35:00,51.6,33.1,29.84,NNW,338,0.0,1.0,49,0.00,,,0.00,WeatherCatV1.21B27,2013-10-08 08:35:00,
2013-10-08 01:40:00,51.6,33.1,29.84,NNW,338,0.0,1.0,49,0.00,,,0.00,WeatherCatV1.21B27,2013-10-08 08:40:00,
2013-10-08 01:45:00,51.6,33.1,29.84,NNW,338,0.0,1.0,49,0.00,,,0.00,WeatherCatV1.21B27,2013-10-08 08:45:00,
2013-10-08 01:50:00,51.6,33.1,29.84,NNW,338,0.0,1.0,49,0.00,,,0.00,WeatherCatV1.21B27,2013-10-08 08:50:00,
2013-10-08 01:55:00,51.6,33.1,29.84,NNW,338,0.0,1.0,49,0.00,,,0.00,WeatherCatV1.21B27,2013-10-08 08:55:00,
2013-10-08 02:00:00,51.6,33.1,29.84,NNW,338,0.0,1.0,49,0.00,,,0.00,WeatherCatV1.21B27,2013-10-08 09:00:00,
2013-10-08 02:05:00,51.6,33.1,29.84,NNW,338,0.0,1.0,49,0.00,,,0.00,WeatherCatV1.21B27,2013-10-08 09:05:00,
2013-10-08 02:10:00,51.6,33.1,29.84,NNW,338,0.0,1.0,49,0.00,,,0.00,WeatherCatV1.21B27,2013-10-08 09:10:00,
2013-10-08 02:15:00,51.6,33.1,29.84,NNW,338,0.0,1.0,49,0.00,,,0.00,WeatherCatV1.21B27,2013-10-08 09:15:00,
2013-10-08 02:20:00,51.6,33.1,29.84,NNW,338,0.0,1.0,49,0.00,,,0.00,WeatherCatV1.21B27,2013-10-08 09:20:00,
2013-10-08 02:25:00,50.6,33.6,29.84,NNW,338,0.0,1.0,52,0.00,,,0.00,WeatherCatV1.21B27,2013-10-08 09:25:00,
2013-10-08 02:30:00,50.6,33.6,29.84,NNW,338,0.0,1.0,52,0.00,,,0.00,WeatherCatV1.21B27,2013-10-08 09:30:00,
2013-10-08 02:35:00,50.6,33.6,29.84,NNW,338,0.0,1.0,52,0.00,,,0.00,WeatherCatV1.21B27,2013-10-08 09:35:00,
2013-10-08 02:40:00,50.6,33.6,29.84,NNW,338,0.0,1.0,52,0.00,,,0.00,WeatherCatV1.21B27,2013-10-08 09:40:00,
2013-10-08 02:45:00,50.6,33.6,29.84,NNW,338,0.0,1.0,52,0.00,,,0.00,WeatherCatV1.21B27,2013-10-08 09:45:00,
2013-10-08 02:50:00,50.6,33.6,29.84,NNW,338,0.0,1.0,52,0.00,,,0.00,WeatherCatV1.21B27,2013-10-08 09:50:00,
2013-10-08 02:55:00,50.6,33.6,29.84,NNW,338,0.0,1.0,52,0.00,,,0.00,WeatherCatV1.21B27,2013-10-08 09:55:00,
2013-10-08 03:00:00,50.6,33.6,29.84,NNW,338,0.0,1.0,52,0.00,,,0.00,WeatherCatV1.21B27,2013-10-08 10:00:00,
2013-10-08 03:05:00,50.6,33.6,29.84,NNW,338,0.0,1.0,52,0.00,,,0.00,WeatherCatV1.21B27,2013-10-08 10:05:00,
2013-10-08 03:10:00,50.6,33.6,29.84,NNW,338,0.0,1.0,52,0.00,,,0.00,WeatherCatV1.21B27,2013-10-08 10:10:00,
2013-10-08 03:15:00,50.6,33.6,29.84,NNW,338,0.0,1.0,52,0.00,,,0.00,WeatherCatV1.21B27,2013-10-08 10:15:00,
2013-10-08 03:20:00,50.6,33.6,29.84,NNW,338,0.0,1.0,52,0.00,,,0.00,WeatherCatV1.21B27,2013-10-08 10:20:00,
2013-10-08 03:25:00,49.5,32.6,29.83,NNW,338,0.0,1.0,52,0.00,,,0.00,WeatherCatV1.21B27,2013-10-08 10:25:00,
2013-10-08 03:30:00,49.5,32.6,29.83,NNW,338,0.0,1.0,52,0.00,,,0.00,WeatherCatV1.21B27,2013-10-08 10:30:00,
2013-10-08 03:35:00,49.5,32.6,29.83,NNW,338,0.0,1.0,52,0.00,,,0.00,WeatherCatV1.21B27,2013-10-08 10:35:00,
2013-10-08 03:40:00,49.5,32.6,29.83,NNW,338,0.0,1.0,52,0.00,,,0.00,WeatherCatV1.21B27,2013-10-08 10:40:00,
2013-10-08 03:45:00,49.5,32.6,29.83,NNW,338,0.0,1.0,52,0.00,,,0.00,WeatherCatV1.21B27,2013-10-08 10:45:00,
2013-10-08 03:50:00,49.5,32.6,29.83,NNW,338,0.0,1.0,52,0.00,,,0.00,WeatherCatV1.21B27,2013-10-08 10:50:00,
2013-10-08 03:55:00,49.5,32.6,29.83,NNW,338,0.0,1.0,52,0.00,,,0.00,WeatherCatV1.21B27,2013-10-08 10:55:00,
2013-10-08 04:00:00,49.5,32.6,29.83,NNW,338,0.0,1.0,52,0.00,,,0.00,WeatherCatV1.21B27,2013-10-08 11:00:00,
2013-10-08 04:05:00,49.5,32.6,29.83,NNW,338,0.0,1.0,52,0.00,,,0.00,WeatherCatV1.21B27,2013-10-08 11:05:00,
2013-10-08 04:10:00,49.5,32.6,29.83,NNW,338,0.0,1.0,52,0.00,,,0.00,WeatherCatV1.21B27,2013-10-08 11:10:00,
2013-10-08 04:15:00,49.5,32.6,29.83,NNW,338,0.0,1.0,52,0.00,,,0.00,WeatherCatV1.21B27,2013-10-08 11:15:00,
2013-10-08 04:20:00,49.5,32.6,29.83,NNW,338,0.0,1.0,52,0.00,,,0.00,WeatherCatV1.21B27,2013-10-08 11:20:00,
2013-10-08 04:25:00,50.5,31.5,29.83,NNW,338,0.0,1.0,48,0.00,,,0.00,WeatherCatV1.21B27,2013-10-08 11:25:00,
2013-10-08 04:30:00,50.5,31.5,29.83,NNW,338,0.0,1.0,48,0.00,,,0.00,WeatherCatV1.21B27,2013-10-08 11:30:00,
2013-10-08 04:35:00,50.5,31.5,29.83,NNW,338,0.0,1.0,48,0.00,,,0.00,WeatherCatV1.21B27,2013-10-08 11:35:00,
2013-10-08 04:40:00,50.5,31.5,29.83,NNW,338,0.0,1.0,48,0.00,,,0.00,WeatherCatV1.21B27,2013-10-08 11:40:00,
2013-10-08 04:45:00,50.5,31.5,29.83,NNW,338,0.0,1.0,48,0.00,,,0.00,WeatherCatV1.21B27,2013-10-08 11:45:00,
2013-10-08 04:50:00,50.5,31.5,29.83,NNW,338,0.0,1.0,48,0.00,,,0.00,WeatherCatV1.21B27,2013-10-08 11:50:00,
2013-10-08 04:55:00,50.5,31.5,29.83,NNW,338,0.0,1.0,48,0.00,,,0.00,WeatherCatV1.21B27,2013-10-08 11:55:00,
2013-10-08 05:00:00,50.5,31.5,29.83,NNW,338,0.0,1.0,48,0.00,,,0.00,WeatherCatV1.21B27,2013-10-08 12:00:00,
2013-10-08 05:05:00,50.5,31.5,29.83,NNW,338,0.0,1.0,48,0.00,,,0.00,WeatherCatV1.21B27,2013-10-08 12:05:00,
2013-10-08 05:10:00,50.5,31.5,29.83,NNW,338,0.0,1.0,48,0.00,,,0.00,WeatherCatV1.21B27,2013-10-08 12:10:00,
2013-10-08 05:15:00,50.5,31.5,29.83,NNW,338,0.0,1.0,48,0.00,,,0.00,WeatherCatV1.21B27,2013-10-08 12:15:00,
2013-10-08 05:20:00,50.5,31.5,29.83,NNW,338,0.0,1.0,48,0.00,,,0.00,WeatherCatV1.21B27,2013-10-08 12:20:00,
2013-10-08 05:25:00,50.0,30.6,29.83,NNW,338,0.0,1.0,47,0.00,,,0.00,WeatherCatV1.21B27,2013-10-08 12:25:00,
2013-10-08 05:30:00,50.0,30.6,29.83,NNW,338,0.0,1.0,47,0.00,,,0.00,WeatherCatV1.21B27,2013-10-08 12:30:00,
2013-10-08 05:35:00,50.0,30.6,29.83,NNW,338,0.0,1.0,47,0.00,,,0.00,WeatherCatV1.21B27,2013-10-08 12:35:00,
2013-10-08 05:40:00,50.0,30.6,29.83,NNW,338,0.0,1.0,47,0.00,,,0.00,WeatherCatV1.21B27,2013-10-08 12:40:00,
2013-10-08 05:45:00,50.0,30.6,29.83,NNW,338,0.0,1.0,47,0.00,,,0.00,WeatherCatV1.21B27,2013-10-08 12:45:00,
2013-10-08 05:50:00,50.0,30.6,29.83,NNW,338,0.0,1.0,47,0.00,,,0.00,WeatherCatV1.21B27,2013-10-08 12:50:00,
2013-10-08 05:55:00,50.0,30.6,29.83,NNW,338,0.0,1.0,47,0.00,,,0.00,WeatherCatV1.21B27,2013-10-08 12:55:00,
2013-10-08 06:00:00,50.0,30.6,29.83,NNW,338,0.0,1.0,47,0.00,,,0.00,WeatherCatV1.21B27,2013-10-08 13:00:00,
2013-10-08 06:05:00,50.0,30.6,29.83,NNW,338,0.0,1.0,47,0.00,,,0.00,WeatherCatV1.21B27,2013-10-08 13:05:00,
2013-10-08 06:10:00,50.0,30.6,29.83,NNW,338,0.0,1.0,47,0.00,,,0.00,WeatherCatV1.21B27,2013-10-08 13:10:00,
2013-10-08 06:15:00,50.0,30.6,29.83,NNW,338,0.0,1.0,47,0.00,,,0.00,WeatherCatV1.21B27,2013-10-08 13:15:00,
2013-10-08 06:20:00,50.0,30.6,29.83,NNW,338,0.0,1.0,47,0.00,,,0.00,WeatherCatV1.21B27,2013-10-08 13:20:00,
2013-10-08 06:25:00,48.9,32.0,29.83,NNW,338,0.0,1.0,52,0.00,,,0.00,WeatherCatV1.21B27,2013-10-08 13:25:00,
2013-10-08 06:30:00,48.9,32.0,29.83,NNW,338,0.0,1.0,52,0.00,,,0.00,WeatherCatV1.21B27,2013-10-08 13:30:00,
2013-10-08 06:35:00,48.9,32.0,29.83,NNW,338,0.0,1.0,52,0.00,,,0.00,WeatherCatV1.21B27,2013-10-08 13:35:00,
2013-10-08 06:40:00,48.9,32.0,29.83,NNW,338,0.0,1.0,52,0.00,,,0.00,WeatherCatV1.21B27,2013-10-08 13:40:00,
2013-10-08 06:45:00,48.9,32.0,29.83,NNW,338,0.0,1.0,52,0.00,,,0.00,WeatherCatV1.21B27,2013-10-08 13:45:00,
2013-10-08 06:50:00,48.9,32.0,29.83,NNW,338,0.0,1.0,52,0.00,,,0.00,WeatherCatV1.21B27,2013-10-08 13:50:00,
2013-10-08 06:55:00,48.9,32.0,29.83,NNW,338,0.0,1.0,52,0.00,,,0.00,WeatherCatV1.21B27,2013-10-08 13:55:00,
2013-10-08 07:00:00,48.9,32.0,29.83,NNW,338,0.0,1.0,52,0.00,,,0.00,WeatherCatV1.21B27,2013-10-08 14:00:00,
2013-10-08 07:05:00,48.9,32.0,29.83,NNW,338,0.0,1.0,52,0.00,,,0.00,WeatherCatV1.21B27,2013-10-08 14:05:00,
2013-10-08 07:10:00,48.9,32.0,29.83,NNW,338,0.0,1.0,52,0.00,,,0.00,WeatherCatV1.21B27,2013-10-08 14:10:00,
2013-10-08 07:15:00,48.9,32.0,29.83,NNW,338,0.0,1.0,52,0.00,,,0.00,WeatherCatV1.21B27,2013-10-08 14:15:00,
2013-10-08 07:20:00,48.9,32.0,29.83,NNW,338,0.0,1.0,52,0.00,,,0.00,WeatherCatV1.21B27,2013-10-08 14:20:00,
2013-10-08 07:25:00,48.2,30.4,29.83,NNW,338,0.0,0.0,50,0.00,,,0.00,WeatherCatV1.21B27,2013-10-08 14:25:00,
2013-10-08 07:30:00,48.2,30.4,29.83,NNW,338,0.0,0.0,50,0.00,,,0.00,WeatherCatV1.21B27,2013-10-08 14:30:00,
2013-10-08 07:35:00,48.2,30.4,29.83,NNW,338,0.0,0.0,50,0.00,,,0.00,WeatherCatV1.21B27,2013-10-08 14:35:00,
2013-10-08 07:40:00,48.2,30.4,29.83,NNW,338,0.0,0.0,50,0.00,,,0.00,WeatherCatV1.21B27,2013-10-08 14:40:00,
2013-10-08 07:45:00,48.2,30.4,29.83,NNW,338,0.0,0.0,50,0.00,,,0.00,WeatherCatV1.21B27,2013-10-08 14:45:00,
2013-10-08 07:50:00,48.2,30.4,29.83,NNW,338,0.0,0.0,50,0.00,,,0.00,WeatherCatV1.21B27,2013-10-08 14:50:00,
2013-10-08 07:55:00,48.2,30.4,29.83,NNW,338,0.0,0.0,50,0.00,,,0.00,WeatherCatV1.21B27,2013-10-08 14:55:00,
2013-10-08 08:00:00,48.2,30.4,29.83,NNW,338,0.0,0.0,50,0.00,,,0.00,WeatherCatV1.21B27,2013-10-08 15:00:00,
2013-10-08 08:05:00,48.2,30.4,29.83,NNW,338,0.0,0.0,50,0.00,,,0.00,WeatherCatV1.21B27,2013-10-08 15:05:00,
2013-10-08 08:10:00,48.2,30.4,29.83,NNW,338,0.0,0.0,50,0.00,,,0.00,WeatherCatV1.21B27,2013-10-08 15:10:00,
2013-10-08 08:15:00,48.2,30.4,29.83,NNW,338,0.0,0.0,50,0.00,,,0.00,WeatherCatV1.21B27,2013-10-08 15:15:00,
2013-10-08 08:20:00,48.2,30.4,29.83,NNW,338,0.0,0.0,50,0.00,,,0.00,WeatherCatV1.21B27,2013-10-08 15:20:00,
2013-10-08 08:25:00,48.2,31.9,29.83,NNW,338,0.0,0.0,53,0.00,,,0.00,WeatherCatV1.21B27,2013-10-08 15:25:00,
2013-10-08 08:30:00,48.2,31.9,29.83,NNW,338,0.0,0.0,53,0.00,,,0.00,WeatherCatV1.21B27,2013-10-08 15:30:00,
2013-10-08 08:35:00,48.2,31.9,29.83,NNW,338,0.0,0.0,53,0.00,,,0.00,WeatherCatV1.21B27,2013-10-08 15:35:00,
2013-10-08 08:40:00,48.2,31.9,29.83,NNW,338,0.0,0.0,53,0.00,,,0.00,WeatherCatV1.21B27,2013-10-08 15:40:00,
2013-10-08 08:45:00,48.2,31.9,29.83,NNW,338,0.0,0.0,53,0.00,,,0.00,WeatherCatV1.21B27,2013-10-08 15:45:00,
2013-10-08 08:50:00,48.2,31.9,29.83,NNW,338,0.0,0.0,53,0.00,,,0.00,WeatherCatV1.21B27,2013-10-08 15:50:00,
2013-10-08 08:55:00,48.2,31.9,29.83,NNW,338,0.0,0.0,53,0.00,,,0.00,WeatherCatV1.21B27,2013-10-08 15:55:00,
2013-10-08 09:00:00,48.2,31.9,29.83,NNW,338,0.0,0.0,53,0.00,,,0.00,WeatherCatV1.21B27,2013-10-08 16:00:00,
2013-10-08 09:05:00,48.2,31.9,29.83,NNW,338,0.0,0.0,53,0.00,,,0.00,WeatherCatV1.21B27,2013-10-08 16:05:00,
2013-10-08 09:10:00,48.2,31.9,29.83,NNW,338,0.0,0.0,53,0.00,,,0.00,WeatherCatV1.21B27,2013-10-08 16:10:00,
2013-10-08 09:15:00,48.2,31.9,29.83,NNW,338,0.0,0.0,53,0.00,,,0.00,WeatherCatV1.21B27,2013-10-08 16:15:00,
2013-10-08 09:20:00,48.2,31.9,29.83,NNW,338,0.0,0.0,53,0.00,,,0.00,WeatherCatV1.21B27,2013-10-08 16:20:00,
2013-10-08 09:25:00,53.7,29.3,29.83,NNW,338,0.0,0.0,39,0.00,,,0.00,WeatherCatV1.21B27,2013-10-08 16:25:00,
2013-10-08 09:30:00,53.7,29.3,29.83,NNW,338,0.0,0.0,39,0.00,,,0.00,WeatherCatV1.21B27,2013-10-08 16:30:00,
2013-10-08 09:35:00,53.7,29.3,29.83,NNW,338,0.0,0.0,39,0.00,,,0.00,WeatherCatV1.21B27,2013-10-08 16:35:00,
2013-10-08 09:40:00,53.7,29.3,29.83,NNW,338,0.0,0.0,39,0.00,,,0.00,WeatherCatV1.21B27,2013-10-08 16:40:00,
2013-10-08 09:45:00,53.7,29.3,29.83,NNW,338,0.0,0.0,39,0.00,,,0.00,WeatherCatV1.21B27,2013-10-08 16:45:00,
2013-10-08 09:50:00,53.7,29.3,29.83,NNW,338,0.0,0.0,39,0.00,,,0.00,WeatherCatV1.21B27,2013-10-08 16:50:00,
2013-10-08 09:55:00,53.7,29.3,29.83,NNW,338,0.0,0.0,39,0.00,,,0.00,WeatherCatV1.21B27,2013-10-08 16:55:00,
2013-10-08 10:00:00,53.7,29.3,29.83,NNW,338,0.0,0.0,39,0.00,,,0.00,WeatherCatV1.21B27,2013-10-08 17:00:00,
2013-10-08 10:05:00,53.7,29.3,29.83,NNW,338,0.0,0.0,39,0.00,,,0.00,WeatherCatV1.21B27,2013-10-08 17:05:00,
2013-10-08 10:10:00,53.7,29.3,29.83,NNW,338,0.0,0.0,39,0.00,,,0.00,WeatherCatV1.21B27,2013-10-08 17:10:00,
2013-10-08 10:15:00,53.7,29.3,29.83,NNW,338,0.0,0.0,39,0.00,,,0.00,WeatherCatV1.21B27,2013-10-08 17:15:00,
2013-10-08 10:20:00,53.7,29.3,29.83,NNW,338,0.0,0.0,39,0.00,,,0.00,WeatherCatV1.21B27,2013-10-08 17:20:00,
2013-10-08 10:25:00,59.9,35.5,29.83,NNW,338,0.0,0.0,40,0.00,,,0.00,WeatherCatV1.21B27,2013-10-08 17:25:00,
2013-10-08 10:30:00,59.9,35.5,29.83,NNW,338,0.0,0.0,40,0.00,,,0.00,WeatherCatV1.21B27,2013-10-08 17:30:00,
2013-10-08 10:35:00,59.9,35.5,29.83,NNW,338,0.0,0.0,40,0.00,,,0.00,WeatherCatV1.21B27,2013-10-08 17:35:00,
2013-10-08 10:40:00,59.9,35.5,29.83,NNW,338,0.0,0.0,40,0.00,,,0.00,WeatherCatV1.21B27,2013-10-08 17:40:00,
2013-10-08 10:45:00,59.9,35.5,29.83,NNW,338,0.0,0.0,40,0.00,,,0.00,WeatherCatV1.21B27,2013-10-08 17:45:00,
2013-10-08 10:50:00,59.9,35.5,29.83,NNW,338,0.0,0.0,40,0.00,,,0.00,WeatherCatV1.21B27,2013-10-08 17:50:00,
2013-10-08 10:55:00,59.9,35.5,29.83,NNW,338,0.0,0.0,40,0.00,,,0.00,WeatherCatV1.21B27,2013-10-08 17:55:00,
2013-10-08 11:00:00,59.9,35.5,29.83,NNW,338,0.0,0.0,40,0.00,,,0.00,WeatherCatV1.21B27,2013-10-08 18:00:00,
2013-10-08 11:05:00,59.9,35.5,29.83,NNW,338,0.0,0.0,40,0.00,,,0.00,WeatherCatV1.21B27,2013-10-08 18:05:00,
2013-10-08 11:10:00,59.9,35.5,29.83,NNW,338,0.0,0.0,40,0.00,,,0.00,WeatherCatV1.21B27,2013-10-08 18:10:00,
2013-10-08 11:15:00,59.9,35.5,29.83,NNW,338,0.0,0.0,40,0.00,,,0.00,WeatherCatV1.21B27,2013-10-08 18:15:00,
2013-10-08 11:20:00,59.9,35.5,29.83,NNW,338,0.0,0.0,40,0.00,,,0.00,WeatherCatV1.21B27,2013-10-08 18:20:00,
2013-10-08 11:25:00,67.5,32.3,29.81,West,270,0.0,3.0,27,0.00,,,0.00,WeatherCatV1.21B27,2013-10-08 18:25:00,
2013-10-08 11:30:00,67.5,32.3,29.81,West,270,0.0,3.0,27,0.00,,,0.00,WeatherCatV1.21B27,2013-10-08 18:30:00,
2013-10-08 11:35:00,67.5,32.3,29.81,West,270,0.0,3.0,27,0.00,,,0.00,WeatherCatV1.21B27,2013-10-08 18:35:00,
2013-10-08 11:40:00,67.5,32.3,29.81,West,270,0.0,3.0,27,0.00,,,0.00,WeatherCatV1.21B27,2013-10-08 18:40:00,
2013-10-08 11:45:00,67.5,32.3,29.81,West,270,0.0,3.0,27,0.00,,,0.00,WeatherCatV1.21B27,2013-10-08 18:45:00,
2013-10-08 11:50:00,67.5,32.3,29.81,West,270,0.0,3.0,27,0.00,,,0.00,WeatherCatV1.21B27,2013-10-08 18:50:00,
2013-10-08 11:55:00,67.5,32.3,29.81,West,270,0.0,3.0,27,0.00,,,0.00,WeatherCatV1.21B27,2013-10-08 18:55:00,
2013-10-08 12:00:00,67.5,32.3,29.81,West,270,0.0,3.0,27,0.00,,,0.00,WeatherCatV1.21B27,2013-10-08 19:00:00,
2013-10-08 12:05:00,67.5,32.3,29.81,West,270,0.0,3.0,27,0.00,,,0.00,WeatherCatV1.21B27,2013-10-08 19:05:00,
2013-10-08 12:10:00,67.5,32.3,29.81,West,270,0.0,3.0,27,0.00,,,0.00,WeatherCatV1.21B27,2013-10-08 19:10:00,
2013-10-08 12:15:00,67.5,32.3,29.81,West,270,0.0,3.0,27,0.00,,,0.00,WeatherCatV1.21B27,2013-10-08 19:15:00,
2013-10-08 12:20:00,67.5,32.3,29.81,West,270,0.0,3.0,27,0.00,,,0.00,WeatherCatV1.21B27,2013-10-08 19:20:00,
2013-10-08 12:25:00,67.4,33.2,29.80,West,270,2.0,5.0,28,0.00,,,0.00,WeatherCatV1.21B27,2013-10-08 19:25:00,
2013-10-08 12:30:00,67.4,33.2,29.80,West,270,2.0,5.0,28,0.00,,,0.00,WeatherCatV1.21B27,2013-10-08 19:30:00,
2013-10-08 12:35:00,67.4,33.2,29.80,West,270,2.0,5.0,28,0.00,,,0.00,WeatherCatV1.21B27,2013-10-08 19:35:00,
2013-10-08 12:40:00,67.4,33.2,29.80,West,270,2.0,5.0,28,0.00,,,0.00,WeatherCatV1.21B27,2013-10-08 19:40:00,
2013-10-08 12:45:00,67.4,33.2,29.80,West,270,2.0,5.0,28,0.00,,,0.00,WeatherCatV1.21B27,2013-10-08 19:45:00,
2013-10-08 12:50:00,67.4,33.2,29.80,West,270,2.0,5.0,28,0.00,,,0.00,WeatherCatV1.21B27,2013-10-08 19:50:00,
2013-10-08 12:55:00,67.4,33.2,29.80,West,270,2.0,5.0,28,0.00,,,0.00,WeatherCatV1.21B27,2013-10-08 19:55:00,
2013-10-08 13:00:00,67.4,33.2,29.80,West,270,2.0,5.0,28,0.00,,,0.00,WeatherCatV1.21B27,2013-10-08 20:00:00,
2013-10-08 13:05:00,67.4,33.2,29.80,West,270,2.0,5.0,28,0.00,,,0.00,WeatherCatV1.21B27,2013-10-08 20:05:00,
2013-10-08 13:10:00,67.4,33.2,29.80,West,270,2.0,5.0,28,0.00,,,0.00,WeatherCatV1.21B27,2013-10-08 20:10:00,
2013-10-08 13:15:00,67.4,33.2,29.80,West,270,2.0,5.0,28,0.00,,,0.00,WeatherCatV1.21B27,2013-10-08 20:15:00,
2013-10-08 13:20:00,67.4,33.2,29.80,West,270,2.0,5.0,28,0.00,,,0.00,WeatherCatV1.21B27,2013-10-08 20:20:00,
2013-10-08 13:25:00,66.9,31.8,29.79,West,270,2.0,4.0,27,0.00,,,0.00,WeatherCatV1.21B27,2013-10-08 20:25:00,
2013-10-08 13:30:00,66.9,31.8,29.79,West,270,2.0,4.0,27,0.00,,,0.00,WeatherCatV1.21B27,2013-10-08 20:30:00,
2013-10-08 13:35:00,66.9,31.8,29.79,West,270,2.0,4.0,27,0.00,,,0.00,WeatherCatV1.21B27,2013-10-08 20:35:00,
2013-10-08 13:40:00,66.9,31.8,29.79,West,270,2.0,4.0,27,0.00,,,0.00,WeatherCatV1.21B27,2013-10-08 20:40:00,
2013-10-08 13:45:00,66.9,31.8,29.79,West,270,2.0,4.0,27,0.00,,,0.00,WeatherCatV1.21B27,2013-10-08 20:45:00,
2013-10-08 13:50:00,66.9,31.8,29.79,West,270,2.0,4.0,27,0.00,,,0.00,WeatherCatV1.21B27,2013-10-08 20:50:00,
2013-10-08 13:55:00,66.9,31.8,29.79,West,270,2.0,4.0,27,0.00,,,0.00,WeatherCatV1.21B27,2013-10-08 20:55:00,
2013-10-08 14:00:00,66.9,31.8,29.79,West,270,2.0,4.0,27,0.00,,,0.00,WeatherCatV1.21B27,2013-10-08 21:00:00,
2013-10-08 14:05:00,66.9,31.8,29.79,West,270,2.0,4.0,27,0.00,,,0.00,WeatherCatV1.21B27,2013-10-08 21:05:00,
2013-10-08 14:10:00,66.9,31.8,29.79,West,270,2.0,4.0,27,0.00,,,0.00,WeatherCatV1.21B27,2013-10-08 21:10:00,
2013-10-08 14:15:00,66.9,31.8,29.79,West,270,2.0,4.0,27,0.00,,,0.00,WeatherCatV1.21B27,2013-10-08 21:15:00,
2013-10-08 14:20:00,66.9,31.8,29.79,West,270,2.0,4.0,27,0.00,,,0.00,WeatherCatV1.21B27,2013-10-08 21:20:00,
2013-10-08 14:25:00,69.4,31.0,29.76,West,270,1.0,5.0,24,0.00,,,0.00,WeatherCatV1.21B27,2013-10-08 21:25:00,
2013-10-08 14:30:00,69.4,31.0,29.76,West,270,1.0,5.0,24,0.00,,,0.00,WeatherCatV1.21B27,2013-10-08 21:30:00,
2013-10-08 14:35:00,69.4,31.0,29.76,West,270,1.0,5.0,24,0.00,,,0.00,WeatherCatV1.21B27,2013-10-08 21:35:00,
2013-10-08 14:40:00,69.4,31.0,29.76,West,270,1.0,5.0,24,0.00,,,0.00,WeatherCatV1.21B27,2013-10-08 21:40:00,
2013-10-08 14:45:00,69.4,31.0,29.76,West,270,1.0,5.0,24,0.00,,,0.00,WeatherCatV1.21B27,2013-10-08 21:45:00,
2013-10-08 14:50:00,69.4,31.0,29.76,West,270,1.0,5.0,24,0.00,,,0.00,WeatherCatV1.21B27,2013-10-08 21:50:00,
2013-10-08 14:55:00,69.4,31.0,29.76,West,270,1.0,5.0,24,0.00,,,0.00,WeatherCatV1.21B27,2013-10-08 21:55:00,
2013-10-08 15:00:00,69.4,31.0,29.76,West,270,1.0,5.0,24,0.00,,,0.00,WeatherCatV1.21B27,2013-10-08 22:00:00,
2013-10-08 15:05:00,69.4,31.0,29.76,West,270,1.0,5.0,24,0.00,,,0.00,WeatherCatV1.21B27,2013-10-08 22:05:00,
2013-10-08 15:10:00,69.4,31.0,29.76,West,270,1.0,5.0,24,0.00,,,0.00,WeatherCatV1.21B27,2013-10-08 22:10:00,
2013-10-08 15:15:00,69.4,31.0,29.76,West,270,1.0,5.0,24,0.00,,,0.00,WeatherCatV1.21B27,2013-10-08 22:15:00,
2013-10-08 15:20:00,69.4,31.0,29.76,West,270,1.0,5.0,24,0.00,,,0.00,WeatherCatV1.21B27,2013-10-08 22:20:00,
2013-10-08 15:25:00,68.7,34.3,29.74,West,270,1.0,5.0,28,0.00,,,0.00,WeatherCatV1.21B27,2013-10-08 22:25:00,
2013-10-08 15:30:00,68.7,34.3,29.74,West,270,1.0,5.0,28,0.00,,,0.00,WeatherCatV1.21B27,2013-10-08 22:30:00,
2013-10-08 15:35:00,68.7,34.3,29.74,West,270,1.0,5.0,28,0.00,,,0.00,WeatherCatV1.21B27,2013-10-08 22:35:00,
2013-10-08 15:40:00,68.7,34.3,29.74,West,270,1.0,5.0,28,0.00,,,0.00,WeatherCatV1.21B27,2013-10-08 22:40:00,
2013-10-08 15:45:00,68.7,34.3,29.74,West,270,1.0,5.0,28,0.00,,,0.00,WeatherCatV1.21B27,2013-10-08 22:45:00,
2013-10-08 15:50:00,68.7,34.3,29.74,West,270,1.0,5.0,28,0.00,,,0.00,WeatherCatV1.21B27,2013-10-08 22:50:00,
2013-10-08 15:55:00,68.7,34.3,29.74,West,270,1.0,5.0,28,0.00,,,0.00,WeatherCatV1.21B27,2013-10-08 22:55:00,
2013-10-08 16:00:00,68.7,34.3,29.74,West,270,1.0,5.0,28,0.00,,,0.00,WeatherCatV1.21B27,2013-10-08 23:00:00,
2013-10-08 16:05:00,68.7,34.3,29.74,West,270,1.0,5.0,28,0.00,,,0.00,WeatherCatV1.21B27,2013-10-08 23:05:00,
2013-10-08 16:10:00,68.7,34.3,29.74,West,270,1.0,5.0,28,0.00,,,0.00,WeatherCatV1.21B27,2013-10-08 23:10:00,
2013-10-08 16:15:00,68.7,34.3,29.74,West,270,1.0,5.0,28,0.00,,,0.00,WeatherCatV1.21B27,2013-10-08 23:15:00,
2013-10-08 16:20:00,68.7,34.3,29.74,West,270,1.0,5.0,28,0.00,,,0.00,WeatherCatV1.21B27,2013-10-08 23:20:00,
2013-10-08 16:25:00,69.1,32.8,29.73,West,270,1.0,4.0,26,0.00,,,0.00,WeatherCatV1.21B27,2013-10-08 23:25:00,
2013-10-08 16:30:00,69.1,32.8,29.73,West,270,1.0,4.0,26,0.00,,,0.00,WeatherCatV1.21B27,2013-10-08 23:30:00,
2013-10-08 16:35:00,69.1,32.8,29.73,West,270,1.0,4.0,26,0.00,,,0.00,WeatherCatV1.21B27,2013-10-08 23:35:00,
2013-10-08 16:40:00,69.1,32.8,29.73,West,270,1.0,4.0,26,0.00,,,0.00,WeatherCatV1.21B27,2013-10-08 23:40:00,
2013-10-08 16:45:00,69.1,32.8,29.73,West,270,1.0,4.0,26,0.00,,,0.00,WeatherCatV1.21B27,2013-10-08 23:45:00,
2013-10-08 16:50:00,69.1,32.8,29.73,West,270,1.0,4.0,26,0.00,,,0.00,WeatherCatV1.21B27,2013-10-08 23:50:00,
2013-10-08 16:55:00,69.1,32.8,29.73,West,270,1.0,4.0,26,0.00,,,0.00,WeatherCatV1.21B27,2013-10-08 23:55:00,
2013-10-08 17:00:00,69.1,32.8,29.73,West,270,1.0,4.0,26,0.00,,,0.00,WeatherCatV1.21B27,2013-10-09 00:00:00,
2013-10-08 17:05:00,69.1,32.8,29.73,West,270,1.0,4.0,26,0.00,,,0.00,WeatherCatV1.21B27,2013-10-09 00:05:00,
2013-10-08 17:10:00,69.1,32.8,29.73,West,270,1.0,4.0,26,0.00,,,0.00,WeatherCatV1.21B27,2013-10-09 00:10:00,
2013-10-08 17:15:00,69.1,32.8,29.73,West,270,1.0,4.0,26,0.00,,,0.00,WeatherCatV1.21B27,2013-10-09 00:15:00,
2013-10-08 17:20:00,69.1,32.8,29.73,West,270,1.0,4.0,26,0.00,,,0.00,WeatherCatV1.21B27,2013-10-09 00:20:00,
2013-10-08 17:25:00,70.5,35.8,29.71,West,270,1.0,4.0,28,0.00,,,0.00,WeatherCatV1.21B27,2013-10-09 00:25:00,
2013-10-08 17:30:00,70.5,35.8,29.71,West,270,1.0,4.0,28,0.00,,,0.00,WeatherCatV1.21B27,2013-10-09 00:30:00,
2013-10-08 17:35:00,70.5,35.8,29.71,West,270,1.0,4.0,28,0.00,,,0.00,WeatherCatV1.21B27,2013-10-09 00:35:00,
2013-10-08 17:40:00,70.5,35.8,29.71,West,270,1.0,4.0,28,0.00,,,0.00,WeatherCatV1.21B27,2013-10-09 00:40:00,
2013-10-08 17:45:00,70.5,35.8,29.71,West,270,1.0,4.0,28,0.00,,,0.00,WeatherCatV1.21B27,2013-10-09 00:45:00,
2013-10-08 17:50:00,70.5,35.8,29.71,West,270,1.0,4.0,28,0.00,,,0.00,WeatherCatV1.21B27,2013-10-09 00:50:00,
2013-10-08 17:55:00,70.5,35.8,29.71,West,270,1.0,4.0,28,0.00,,,0.00,WeatherCatV1.21B27,2013-10-09 00:55:00,
2013-10-08 18:00:00,70.5,35.8,29.71,West,270,1.0,4.0,28,0.00,,,0.00,WeatherCatV1.21B27,2013-10-09 01:00:00,
2013-10-08 18:05:00,70.5,35.8,29.71,West,270,1.0,4.0,28,0.00,,,0.00,WeatherCatV1.21B27,2013-10-09 01:05:00,
2013-10-08 18:10:00,70.5,35.8,29.71,West,270,1.0,4.0,28,0.00,,,0.00,WeatherCatV1.21B27,2013-10-09 01:10:00,
2013-10-08 18:15:00,70.5,35.8,29.71,West,270,1.0,4.0,28,0.00,,,0.00,WeatherCatV1.21B27,2013-10-09 01:15:00,
2013-10-08 18:20:00,70.5,35.8,29.71,West,270,1.0,4.0,28,0.00,,,0.00,WeatherCatV1.21B27,2013-10-09 01:20:00,
2013-10-08 18:25:00,67.1,35.5,29.69,WSW,248,0.0,4.0,31,0.00,,,0.00,WeatherCatV1.21B27,2013-10-09 01:25:00,
2013-10-08 18:30:00,67.1,35.5,29.69,WSW,248,0.0,4.0,31,0.00,,,0.00,WeatherCatV1.21B27,2013-10-09 01:30:00,
2013-10-08 18:35:00,67.1,35.5,29.69,WSW,248,0.0,4.0,31,0.00,,,0.00,WeatherCatV1.21B27,2013-10-09 01:35:00,
2013-10-08 18:40:00,67.1,35.5,29.69,WSW,248,0.0,4.0,31,0.00,,,0.00,WeatherCatV1.21B27,2013-10-09 01:40:00,
2013-10-08 18:45:00,67.1,35.5,29.69,WSW,248,0.0,4.0,31,0.00,,,0.00,WeatherCatV1.21B27,2013-10-09 01:45:00,
2013-10-08 18:50:00,67.1,35.5,29.69,WSW,248,0.0,4.0,31,0.00,,,0.00,WeatherCatV1.21B27,2013-10-09 01:50:00,
2013-10-08 18:55:00,67.1,35.5,29.69,WSW,248,0.0,4.0,31,0.00,,,0.00,WeatherCatV1.21B27,2013-10-09 01:55:00,
2013-10-08 19:00:00,67.1,35.5,29.69,WSW,248,0.0,4.0,31,0.00,,,0.00,WeatherCatV1.21B27,2013-10-09 02:00:00,
2013-10-08 19:05:00,67.1,35.5,29.69,WSW,248,0.0,4.0,31,0.00,,,0.00,WeatherCatV1.21B27,2013-10-09 02:05:00,
2013-10-08 19:10:00,67.1,35.5,29.69,WSW,248,0.0,4.0,31,0.00,,,0.00,WeatherCatV1.21B27,2013-10-09 02:10:00,
2013-10-08 19:15:00,67.1,35.5,29.69,WSW,248,0.0,4.0,31,0.00,,,0.00,WeatherCatV1.21B27,2013-10-09 02:15:00,
2013-10-08 19:20:00,67.1,35.5,29.69,WSW,248,0.0,4.0,31,0.00,,,0.00,WeatherCatV1.21B27,2013-10-09 02:20:00,
2013-10-08 19:25:00,58.1,37.4,29.69,West,262,0.0,0.0,46,0.00,,,0.00,WeatherCatV1.21B27,2013-10-09 02:25:00,
2013-10-08 19:38:00,58.1,37.4,29.69,West,262,0.0,0.0,46,0.00,,,0.00,WeatherCatV1.21B27,2013-10-09 02:38:00,
2013-10-08 19:43:00,57.7,37.1,29.68,West,264,0.0,0.0,46,0.00,,,0.00,WeatherCatV1.21B27,2013-10-09 02:43:00,
2013-10-08 19:48:00,57.4,37.9,29.68,West,264,0.0,0.0,48,0.00,,,0.00,WeatherCatV1.21B27,2013-10-09 02:48:00,
2013-10-08 19:53:00,57.2,38.7,29.68,West,264,0.0,0.0,50,0.00,,,0.00,WeatherCatV1.21B27,2013-10-09 02:53:00,
2013-10-08 19:58:00,56.7,38.8,29.68,West,264,0.0,0.0,51,0.00,,,0.00,WeatherCatV1.21B27,2013-10-09 02:58:00,
2013-10-08 20:03:00,56.0,39.1,29.68,West,264,0.0,0.0,53,0.00,,,0.00,WeatherCatV1.21B27,2013-10-09 03:03:00,
2013-10-08 20:08:00,55.3,39.4,29.68,West,264,0.0,0.0,55,0.00,,,0.00,WeatherCatV1.21B27,2013-10-09 03:08:00,
2013-10-08 20:13:00,55.1,38.3,29.68,West,264,0.0,0.0,53,0.00,,,0.00,WeatherCatV1.21B27,2013-10-09 03:13:00,
2013-10-08 20:18:00,55.1,39.2,29.68,West,264,0.0,0.0,55,0.00,,,0.00,WeatherCatV1.21B27,2013-10-09 03:18:00,
2013-10-08 20:23:00,55.0,38.2,29.68,West,264,0.0,0.0,53,0.00,,,0.00,WeatherCatV1.21B27,2013-10-09 03:23:00,
2013-10-08 20:28:00,55.0,39.1,29.68,West,264,0.0,0.0,55,0.00,,,0.00,WeatherCatV1.21B27,2013-10-09 03:28:00,
2013-10-08 20:33:00,54.7,38.8,29.68,West,264,0.0,0.0,55,0.00,,,0.00,WeatherCatV1.21B27,2013-10-09 03:33:00,
2013-10-08 20:38:00,54.5,39.1,29.68,West,264,0.0,0.0,56,0.00,,,0.00,WeatherCatV1.21B27,2013-10-09 03:38:00,
2013-10-08 20:43:00,53.8,38.0,29.68,West,264,0.0,0.0,55,0.00,,,0.00,WeatherCatV1.21B27,2013-10-09 03:43:00,
2013-10-08 20:48:00,53.4,38.5,29.68,West,264,0.0,0.0,57,0.00,,,0.00,WeatherCatV1.21B27,2013-10-09 03:48:00,
2013-10-08 20:53:00,53.3,38.9,29.68,West,264,0.0,0.0,58,0.00,,,0.00,WeatherCatV1.21B27,2013-10-09 03:53:00,
2013-10-08 20:58:00,53.0,38.6,29.68,West,264,0.0,0.0,58,0.00,,,0.00,WeatherCatV1.21B27,2013-10-09 03:58:00,
2013-10-08 21:01:00,53.0,38.6,29.68,West,264,0.0,0.0,58,0.00,,,0.00,WeatherCatV1.21B27,2013-10-09 04:01:00,
2013-10-08 21:06:00,52.9,38.5,29.68,West,264,0.0,0.0,58,0.00,,,0.00,WeatherCatV1.21B27,2013-10-09 04:06:00,
2013-10-08 21:11:00,52.9,38.5,29.67,West,264,0.0,0.0,58,0.00,,,0.00,WeatherCatV1.21B27,2013-10-09 04:11:00,
2013-10-08 21:16:00,52.7,38.8,29.67,West,264,0.0,0.0,59,0.00,,,0.00,WeatherCatV1.21B27,2013-10-09 04:16:00,
2013-10-08 21:21:00,52.4,38.5,29.67,West,264,0.0,0.0,59,0.00,,,0.00,WeatherCatV1.21B27,2013-10-09 04:21:00,
2013-10-08 21:26:00,52.0,38.5,29.67,West,264,0.0,0.0,60,0.00,,,0.00,WeatherCatV1.21B27,2013-10-09 04:26:00,
2013-10-08 21:31:00,51.6,37.7,29.67,West,264,0.0,0.0,59,0.00,,,0.00,WeatherCatV1.21B27,2013-10-09 04:31:00,
2013-10-08 21:36:00,51.5,38.9,29.67,West,264,0.0,0.0,62,0.00,,,0.00,WeatherCatV1.21B27,2013-10-09 04:36:00,
2013-10-08 21:41:00,51.5,38.5,29.67,West,264,0.0,0.0,61,0.00,,,0.00,WeatherCatV1.21B27,2013-10-09 04:41:00,
2013-10-08 21:46:00,51.6,37.3,29.67,West,264,0.0,1.0,58,0.00,,,0.00,WeatherCatV1.21B27,2013-10-09 04:46:00,
2013-10-08 21:50:00,52.1,36.9,29.67,NW,307,0.0,1.0,56,0.00,,,0.00,WeatherCatV1.21B27,2013-10-09 04:50:00,
2013-10-08 21:51:00,52.4,36.7,29.66,ENE,65,1.0,1.0,55,0.00,,,0.00,WeatherCatV1.21B27,2013-10-09 04:51:00,
2013-10-08 21:55:00,52.8,37.1,29.66,NNE,33,1.0,1.0,55,0.00,,,0.00,WeatherCatV1.21B27,2013-10-09 04:55:00,
2013-10-08 22:00:00,52.8,37.1,29.66,NNE,33,1.0,1.0,55,0.00,,,0.00,WeatherCatV1.21B27,2013-10-09 05:00:00,
2013-10-08 22:05:00,53.0,36.8,29.66,ENE,68,0.0,1.0,54,0.00,,,0.00,WeatherCatV1.21B27,2013-10-09 05:05:00,
2013-10-08 22:10:00,53.0,36.8,29.66,ENE,68,0.0,1.0,54,0.00,,,0.00,WeatherCatV1.21B27,2013-10-09 05:10:00,
2013-10-08 22:15:00,53.0,36.8,29.66,ENE,68,0.0,1.0,54,0.00,,,0.00,WeatherCatV1.21B27,2013-10-09 05:15:00,
2013-10-08 22:20:00,53.0,36.8,29.66,ENE,68,0.0,1.0,54,0.00,,,0.00,WeatherCatV1.21B27,2013-10-09 05:20:00,
2013-10-08 22:25:00,53.0,36.8,29.66,ENE,68,0.0,1.0,54,0.00,,,0.00,WeatherCatV1.21B27,2013-10-09 05:25:00,
2013-10-08 22:30:00,53.0,36.8,29.66,ENE,68,0.0,1.0,54,0.00,,,0.00,WeatherCatV1.21B27,2013-10-09 05:30:00,
2013-10-08 22:35:00,53.0,36.8,29.66,ENE,68,0.0,1.0,54,0.00,,,0.00,WeatherCatV1.21B27,2013-10-09 05:35:00,
2013-10-08 22:40:00,53.0,36.8,29.66,ENE,68,0.0,1.0,54,0.00,,,0.00,WeatherCatV1.21B27,2013-10-09 05:40:00,
2013-10-08 22:45:00,53.0,36.8,29.66,ENE,68,0.0,1.0,54,0.00,,,0.00,WeatherCatV1.21B27,2013-10-09 05:45:00,
2013-10-08 22:50:00,53.0,36.8,29.66,ENE,68,0.0,1.0,54,0.00,,,0.00,WeatherCatV1.21B27,2013-10-09 05:50:00,
2013-10-08 22:55:00,53.0,36.8,29.66,ENE,68,0.0,1.0,54,0.00,,,0.00,WeatherCatV1.21B27,2013-10-09 05:55:00,
2013-10-08 23:00:00,53.0,36.8,29.66,ENE,68,0.0,1.0,54,0.00,,,0.00,WeatherCatV1.21B27,2013-10-09 06:00:00,
2013-10-08 23:05:00,50.9,37.9,29.64,ENE,68,0.0,1.0,61,0.00,,,0.00,WeatherCatV1.21B27,2013-10-09 06:05:00,
2013-10-08 23:10:00,50.9,37.9,29.64,ENE,68,0.0,1.0,61,0.00,,,0.00,WeatherCatV1.21B27,2013-10-09 06:10:00,
2013-10-08 23:15:00,50.9,37.9,29.64,ENE,68,0.0,1.0,61,0.00,,,0.00,WeatherCatV1.21B27,2013-10-09 06:15:00,
2013-10-08 23:20:00,50.9,37.9,29.64,ENE,68,0.0,1.0,61,0.00,,,0.00,WeatherCatV1.21B27,2013-10-09 06:20:00,
2013-10-08 23:25:00,50.9,37.9,29.64,ENE,68,0.0,1.0,61,0.00,,,0.00,WeatherCatV1.21B27,2013-10-09 06:25:00,
2013-10-08 23:30:00,50.9,37.9,29.64,ENE,68,0.0,1.0,61,0.00,,,0.00,WeatherCatV1.21B27,2013-10-09 06:30:00,
2013-10-08 23:35:00,50.9,37.9,29.64,ENE,68,0.0,1.0,61,0.00,,,0.00,WeatherCatV1.21B27,2013-10-09 06:35:00,
2013-10-08 23:40:00,50.9,37.9,29.64,ENE,68,0.0,1.0,61,0.00,,,0.00,WeatherCatV1.21B27,2013-10-09 06:40:00,
2013-10-08 23:45:00,50.9,37.9,29.64,ENE,68,0.0,1.0,61,0.00,,,0.00,WeatherCatV1.21B27,2013-10-09 06:45:00,
2013-10-08 23:50:00,50.9,37.9,29.64,ENE,68,0.0,1.0,61,0.00,,,0.00,WeatherCatV1.21B27,2013-10-09 06:50:00,
2013-10-08 23:55:00,50.9,37.9,29.64,ENE,68,0.0,1.0,61,0.00,,,0.00,WeatherCatV1.21B27,2013-10-09 06:55:00,